[[{"header":{"parameterUnit":"m.s-1","parameterCategory":1,"la1":30.2992,"la2":30.254,"lo1":-89.0895,"lo2":-89.0443,"dy":0.0025,"dx":0.0025,"nx":19,"ny":19,"refTime":"2026-04-02T09:00:00:Z","depth":0,"parameterNumber":2,"parameterNumberName":"U-component_of_WINDS"},"data":[0,0,0,-3.8129,-3.8132,-3.831,-3.831,-3.8535,-3.8537,0,0,0,0,0,0,0,0,0,0,0,-3.8075,-3.8076,-3.8128,-3.8133,-3.831,-3.831,-3.8535,-3.8537,0,0,0,0,0,0,0,0,0,0,0,-3.8074,-3.8076,-3.8078,-3.8133,-3.8309,-3.831,-3.8534,-3.8401,0,0,0,0,0,0,0,0,0,0,-3.823,-3.8179,-3.8076,-3.8078,-3.8134,-3.8309,-3.831,-3.8395,-3.841,-3.8454,0,-3.8493,0,-3.8519,-3.8552,-3.8553,0,0,0,-3.8134,-3.8167,-3.8215,-3.8078,-3.8136,-3.8309,-3.823,-3.8403,-3.842,-3.8473,-3.8496,-3.8505,-3.8522,-3.8553,-3.8554,-3.8807,-3.8808,0,0,-3.8124,-3.8106,-3.8204,-3.8226,-3.8199,-3.8224,-3.8236,-3.8413,-3.8437,-3.8497,-3.851,-3.8526,-3.8555,-3.8556,-3.8806,-3.8808,0,0,0,-3.8095,-3.8099,-3.8144,-3.8217,-3.8249,-3.8229,-3.8242,-3.8429,-3.8445,-3.8512,-3.8529,-3.8556,-3.8559,-3.8805,-3.8807,-3.8845,0,0,0,-3.8089,-3.8083,-3.814,-3.813,-3.8246,-3.8341,-3.8254,-3.8433,-3.8453,-3.8527,-3.8556,-3.8561,-3.8804,-3.8806,-3.8841,-3.8865,0,0,0,-3.8064,-3.808,-3.8105,-3.8129,-3.8205,-3.8339,-3.8365,-3.8438,-3.8463,-3.8553,-3.8562,-3.8803,-3.8806,-3.8838,-3.886,-3.8926,0,0,0,-3.8031,-3.8136,-3.8105,-3.8229,-3.8203,-3.8361,-3.8364,-3.8483,-3.8564,-3.8557,-3.8804,-3.8807,-3.8837,-3.8857,-3.8922,-3.8977,-3.8999,0,0,-3.8154,-3.815,-3.8225,-3.8202,-3.8361,-3.8336,-3.8501,-3.8592,-3.8617,-3.8743,-3.8749,-3.8842,-3.8859,-3.8925,-3.9128,-3.9145,0,0,0,-3.8257,-3.831,-3.8356,-3.8433,-3.8506,-3.857,-3.8638,-3.8672,-3.8779,-3.8678,-3.8885,-3.8896,-3.8935,-3.8962,-3.8977,-3.9011,-3.8819,-3.8818,-3.8818,-3.8404,-3.843,-3.8555,-3.8603,-3.8677,-3.8747,-3.881,-3.8868,-3.8873,-3.8922,-3.8958,-3.9078,-3.9109,-3.912,-3.9156,-3.8991,-3.8991,-3.8991,-3.8991,-3.8584,-3.8663,-3.8668,-3.879,-3.8818,-3.8921,-3.8993,-3.8993,-3.9093,-3.9053,-3.9089,-3.904,-3.9138,-3.917,-3.8994,-3.8994,-3.8993,-3.8993,-3.8993,-3.8681,-3.8724,-3.8764,-3.8878,-3.8963,-3.9008,-3.9104,-3.9127,-3.9148,-3.9184,-3.9225,-3.9224,-3.9225,-3.9202,-3.9203,-3.9203,-3.9204,-3.9204,-3.9204,-3.8766,-3.881,-3.8888,-3.8974,-3.9027,-3.9098,-3.9171,-3.9223,-3.9287,-3.9295,-3.9296,-3.9295,-3.9143,-3.9103,-3.9211,-3.9209,-3.9209,-3.9208,-3.9208,-3.8936,-3.8901,-3.9021,-3.9074,-3.9177,-3.926,-3.9288,-3.9393,-3.944,-3.9486,-3.948,-3.9364,-3.9361,-3.935,-3.9317,-3.9474,-3.9474,-3.9474,-3.9474,-3.9017,-3.9019,-3.9146,-3.9229,-3.9312,-3.935,-3.9485,-3.9543,-3.9597,-3.9627,-3.9609,-3.9568,-3.9555,-3.9561,-3.9545,-3.9514,-3.9717,-3.9718,-3.9718,-3.9123,-3.9134,-3.9244,-3.9296,-3.9379,-3.945,-3.9577,-3.9672,-3.9727,-3.9728,-3.9652,-3.9641,-3.9576,-3.9553,-3.955,-3.9525,-3.947,0,0]},{"header":{"parameterUnit":"m.s-1","parameterCategory":1,"la1":30.2992,"la2":30.254,"lo1":-89.0895,"lo2":-89.0443,"dy":0.0025,"dx":0.0025,"nx":19,"ny":19,"refTime":"2026-04-02T09:00:00:Z","depth":0,"parameterNumber":3,"parameterNumberName":"V-component_of_WINDS"},"data":[0,0,0,3.0167,3.0169,3.0232,3.0232,3.032,3.0321,0,0,0,0,0,0,0,0,0,0,0,3.0153,3.0154,3.0167,3.0169,3.0232,3.0232,3.032,3.0321,0,0,0,0,0,0,0,0,0,0,0,3.0153,3.0154,3.0155,3.0169,3.0232,3.0232,3.032,3.0269,0,0,0,0,0,0,0,0,0,0,3.0207,3.0198,3.0154,3.0155,3.017,3.0232,3.0232,3.0267,3.0272,3.0295,0,3.0316,0,3.032,3.0327,3.0328,0,0,0,3.0165,3.0194,3.0207,3.0155,3.017,3.0232,3.0202,3.027,3.0276,3.0302,3.0317,3.032,3.0322,3.0328,3.0328,3.0472,3.0473,0,0,3.0161,3.0167,3.0202,3.0211,3.0203,3.02,3.0204,3.0274,3.029,3.0318,3.0322,3.0323,3.0329,3.0329,3.0472,3.0473,0,0,0,3.0154,3.0165,3.0176,3.0208,3.0219,3.0202,3.0207,3.0287,3.029,3.0323,3.0324,3.0329,3.033,3.0471,3.0472,3.0521,0,0,0,3.0152,3.016,3.0174,3.0178,3.0218,3.0254,3.0219,3.0285,3.0293,3.0324,3.0329,3.0331,3.047,3.0471,3.0517,3.0543,0,0,0,3.0147,3.016,3.0171,3.0178,3.0206,3.0253,3.026,3.0287,3.0294,3.0328,3.0331,3.0469,3.0471,3.0514,3.0538,3.0583,0,0,0,3.0144,3.0212,3.0172,3.0247,3.0206,3.0283,3.0259,3.0316,3.0351,3.033,3.047,3.0472,3.0514,3.0535,3.058,3.0623,3.0642,0,0,3.0232,3.0222,3.0267,3.0233,3.0319,3.0273,3.0365,3.0391,3.0388,3.0444,3.0448,3.0519,3.0537,3.0583,3.0742,3.0756,0,0,0,3.0297,3.0329,3.035,3.0385,3.0407,3.0429,3.044,3.045,3.0498,3.0419,3.0547,3.0558,3.0584,3.0604,3.0617,3.064,3.0481,3.0481,3.0481,3.0429,3.0424,3.0497,3.05,3.0534,3.0546,3.0573,3.0588,3.0571,3.0602,3.0618,3.0716,3.074,3.0749,3.0773,3.064,3.064,3.0641,3.0641,3.0558,3.0603,3.0582,3.0645,3.064,3.0692,3.0707,3.0694,3.0743,3.0702,3.0725,3.0681,3.0765,3.0786,3.0644,3.0644,3.0643,3.0643,3.0643,3.0644,3.0665,3.0677,3.0728,3.0768,3.0768,3.0817,3.0809,3.0801,3.0824,3.0842,3.0841,3.084,3.0833,3.0834,3.0834,3.0834,3.0834,3.0835,3.0729,3.0741,3.0784,3.0815,3.0838,3.0866,3.088,3.0901,3.0923,3.0913,3.0914,3.0895,3.0774,3.0745,3.084,3.0839,3.0838,3.0838,3.0837,3.0863,3.0832,3.0898,3.092,3.0957,3.0998,3.0988,3.1033,3.1049,3.1074,3.105,3.0963,3.0951,3.0941,3.0917,3.1051,3.1051,3.1051,3.1051,3.0936,3.0931,3.0997,3.1034,3.1069,3.1067,3.1142,3.1155,3.1162,3.1172,3.1151,3.1118,3.1108,3.1103,3.1089,3.1066,3.1236,3.1236,3.1236,3.1019,3.1017,3.1082,3.109,3.1119,3.1145,3.1215,3.1258,3.126,3.1243,3.118,3.1172,3.1118,3.1101,3.1082,3.1062,3.1019,0,0]}]]